FW3224 Weather Reports


Display with metric or nautical units.
time (UTC)temp
F
wind
direction
speed
MPH
gust
MPH
rain 1hr
in
rain 24hr
in
rain mn
in
humidity
%
barometer
mb
20221004024025 71 34 0.0 0.0 0.00 0.00 0.00 44 1020.5
20221004023525 72 34 0.0 0.0 0.00 0.00 0.00 47 1020.6
20221004023030 72 34 0.0 0.0 0.00 0.00 0.00 47 1020.5
20221004022524 72 34 0.0 0.0 0.00 0.00 0.00 46 1020.6
20221004022024 72 34 0.0 0.0 0.00 0.00 0.00 48 1020.7
20221004021522 72 34 0.0 0.0 0.00 0.00 0.00 46 1020.7
20221004021022 72 34 0.0 1.0 0.00 0.00 0.00 48 1020.7
20221004020522 71 33 0.0 4.0 0.00 0.00 0.00 50 1020.8
20221004020021 71 33 0.0 4.0 0.00 0.00 0.00 49 1020.8
20221004015520 71 32 0.0 8.0 0.00 0.00 0.00 50 1020.8
20221004015017 71 32 0.0 8.0 0.00 0.00 0.00 50 1021.0
20221004014517 71 32 1.0 8.0 0.00 0.00 0.00 48 1020.9
20221004014018 72 31 0.0 1.0 0.00 0.00 0.00 49 1021.0
20221004013515 71 31 0.0 4.0 0.00 0.00 0.00 50 1021.0
20221004013014 70 31 0.0 4.0 0.00 0.00 0.00 46 1021.1
20221004012515 71 31 0.0 4.0 0.00 0.00 0.00 46 1021.1
20221004012013 71 44 0.0 4.0 0.00 0.00 0.00 46 1021.2
20221004011512 71 44 0.0 3.0 0.00 0.00 0.00 48 1021.2
20221004011012 70 44 0.0 5.0 0.00 0.00 0.00 47 1021.3
20221004010510 70 44 0.0 5.0 0.00 0.00 0.00 47 1021.4
20221004010014 70 70 0.0 4.0 0.00 0.00 0.00 47 1021.5
20221004005507 70 70 0.0 4.0 0.00 0.00 0.00 48 1021.5
20221004005007 70 70 0.0 0.0 0.00 0.00 0.00 48 1021.6
20221004004506 69 70 0.0 0.0 0.00 0.00 0.00 50 1021.7
20221004004008 69 70 0.0 0.0 0.00 0.00 0.00 49 1021.7
20221004003503 69 70 0.0 0.0 0.00 0.00 0.00 49 1021.9
20221004003002 68 70 0.0 0.0 0.00 0.00 0.00 50 1022.0
20221004002501 68 70 0.0 5.0 0.00 0.00 0.00 50 1022.1
20221004002102 68 73 0.0 10.0 0.00 0.00 0.00 51 1022.1
20221004001608 68 73 1.0 8.0 0.00 0.00 0.00 52 1022.2
20221004001102 67 88 0.0 7.0 0.00 0.00 0.00 53 1022.2
20221004000601 67 89 0.0 3.0 0.00 0.00 0.00 54 1022.2
20221004000058 67 89 0.0 3.0 0.00 0.00 0.00 54 1022.4
20221003235558 67 89 0.0 4.0 0.00 0.00 0.00 55 1022.4
20221003235058 67 89 0.0 4.0 0.00 0.00 0.00 54 1022.3
20221003234603 67 90 0.0 1.0 0.00 0.00 0.00 53 1022.3
20221003234006 66 92 0.0 2.0 0.00 0.00 0.00 57 1022.2
20221003233504 65 92 0.0 3.0 0.00 0.00 0.00 57 1022.2
20221003233004 65 95 0.0 3.0 0.00 0.00 0.00 58 1022.3
20221003232503 65 101 0.0 1.0 0.00 0.00 0.00 60 1022.4
20221003232002 65 102 0.0 3.0 0.00 0.00 0.00 63 1022.3
20221003231554 64 101 0.0 3.0 0.00 0.00 0.00 66 1022.3
20221003231031 63 101 0.0 1.0 0.00 0.00 0.00 67 1022.3
20221003230633 63 101 0.0 1.0 0.00 0.00 0.00 67 1022.3
20221003230022 63 102 0.0 0.0 0.00 0.00 0.00 71 1022.3
20221003225524 62 101 0.0 0.0 0.00 0.00 0.00 71 1022.2
20221003225024 62 101 0.0 0.0 0.00 0.00 0.00 71 1022.3
20221003224526 61 101 0.0 0.0 0.00 0.00 0.00 72 1022.2
20221003224017 61 101 0.0 0.0 0.00 0.00 0.00 73 1022.2
20221003223516 61 101 0.0 0.0 0.00 0.00 0.00 72 1022.3
20221003223016 61 101 0.0 0.0 0.00 0.00 0.00 73 1022.4
20221003222515 60 101 0.0 0.0 0.00 0.00 0.00 75 1022.4
20221003222013 59 101 0.0 0.0 0.00 0.00 0.00 76 1022.4
20221003221512 59 101 0.0 0.0 0.00 0.00 0.00 77 1022.5
20221003221011 58 101 0.0 0.0 0.00 0.00 0.00 79 1022.4
20221003220510 58 101 0.0 4.0 0.00 0.00 0.00 81 1022.4
20221003220008 57 101 0.0 4.0 0.00 0.00 0.00 81 1022.5
20221003215609 56 101 0.0 0.0 0.00 0.00 0.00 81 1022.5
20221003215042 56 101 0.0 0.0 0.00 0.00 0.00 82 1022.5
20221003214534 55 101 0.0 1.0 0.00 0.00 0.00 84 1022.5
20221003214032 55 101 0.0 1.0 0.00 0.00 0.00 84 1022.5
20221003213533 55 101 0.0 3.0 0.00 0.00 0.00 85 1022.5
20221003213030 54 101 0.0 3.0 0.00 0.00 0.00 85 1022.4
20221003212529 54 101 0.0 3.0 0.00 0.00 0.00 86 1022.4
20221003212027 54 101 0.0 0.0 0.00 0.00 0.00 86 1022.2
20221003211522 53 101 0.0 0.0 0.00 0.00 0.00 88 1022.2
20221003211022 53 101 0.0 0.0 0.00 0.00 0.00 88 1022.1
20221003210519 52 101 0.0 0.0 0.00 0.00 0.00 89 1022.1
20221003210018 52 101 0.0 0.0 0.00 0.00 0.00 89 1022.2
20221003205517 51 101 0.0 2.0 0.00 0.00 0.00 89 1022.0
20221003205017 51 101 0.0 2.0 0.00 0.00 0.00 89 1022.0
20221003204525 51 101 0.0 0.0 0.00 0.00 0.00 89 1021.9
20221003204021 51 101 0.0 0.0 0.00 0.00 0.00 89 1021.8
20221003203521 51 101 0.0 0.0 0.00 0.00 0.00 89 1021.8
20221003203021 51 101 0.0 0.0 0.00 0.00 0.00 88 1021.8
20221003202522 51 101 0.0 0.0 0.00 0.00 0.00 88 1021.7
20221003202021 51 101 0.0 0.0 0.00 0.00 0.00 88 1021.6
20221003201519 51 101 0.0 0.0 0.00 0.00 0.00 88 1021.5
20221003201032 51 101 0.0 0.0 0.00 0.00 0.00 88 1021.5
20221003200516 51 101 0.0 0.0 0.00 0.00 0.00 88 1021.4
20221003200033 51 101 0.0 0.0 0.00 0.00 0.00 88 1021.3
20221003195521 51 101 0.0 0.0 0.00 0.00 0.00 88 1021.2
20221003195016 51 101 0.0 0.0 0.00 0.00 0.00 88 1021.0
20221003194513 51 101 0.0 0.0 0.00 0.00 0.00 87 1021.0
20221003194012 51 101 0.0 0.0 0.00 0.00 0.00 87 1020.8
20221003193516 51 101 0.0 0.0 0.00 0.00 0.00 87 1020.7
20221003193036 51 101 0.0 0.0 0.00 0.00 0.00 87 1020.7
20221003192512 51 101 0.0 0.0 0.00 0.00 0.00 87 1020.7
20221003192011 51 101 0.0 0.0 0.00 0.00 0.00 86 1020.7
20221003191517 52 101 0.0 0.0 0.00 0.00 0.00 86 1020.7
20221003191011 52 101 0.0 2.0 0.00 0.00 0.00 86 1020.6
20221003190510 52 101 0.0 2.0 0.00 0.00 0.00 85 1020.7
20221003190013 52 101 0.0 0.0 0.00 0.00 0.00 85 1020.8
20221003185513 52 101 0.0 3.0 0.00 0.00 0.00 85 1020.7
20221003185009 53 101 0.0 4.0 0.00 0.00 0.00 85 1020.7
20221003184510 53 101 0.0 3.0 0.00 0.00 0.00 85 1020.7
20221003184011 53 101 0.0 2.0 0.00 0.00 0.00 85 1020.6
20221003183509 53 101 0.0 0.0 0.00 0.00 0.00 85 1020.6
20221003183027 53 101 0.0 0.0 0.00 0.00 0.00 85 1020.6
20221003182514 52 101 0.0 0.0 0.00 0.00 0.00 85 1020.6
20221003182009 52 101 0.0 0.0 0.00 0.00 0.00 86 1020.6
20221003181520 52 101 0.0 0.0 0.00 0.00 0.00 86 1020.6
20221003181007 52 101 0.0 0.0 0.00 0.00 0.00 85 1020.6
20221003180507 52 101 0.0 0.0 0.00 0.00 0.00 85 1020.6
20221003180021 52 101 0.0 0.0 0.00 0.00 0.00 85 1020.5
20221003175506 52 101 0.0 0.0 0.00 0.00 0.00 85 1020.5
20221003175008 52 101 0.0 0.0 0.00 0.00 0.00 85 1020.4
20221003174509 52 101 0.0 0.0 0.00 0.00 0.00 85 1020.4
20221003174006 52 101 0.0 0.0 0.00 0.00 0.00 85 1020.4
20221003173505 52 101 0.0 0.0 0.00 0.00 0.00 85 1020.4
20221003173007 52 101 0.0 0.0 0.00 0.00 0.00 85 1020.3
20221003172505 52 101 0.0 0.0 0.00 0.00 0.00 85 1020.2
20221003172005 52 101 0.0 0.0 0.00 0.00 0.00 85 1020.2
20221003171508 52 101 0.0 0.0 0.00 0.00 0.00 86 1020.1
20221003171004 52 101 0.0 0.0 0.00 0.00 0.00 86 1020.1
20221003170504 52 101 0.0 0.0 0.00 0.00 0.00 86 1020.2
20221003170004 51 101 0.0 0.0 0.00 0.00 0.00 87 1020.2
20221003165506 51 101 0.0 0.0 0.00 0.00 0.00 87 1020.2
20221003165006 51 101 0.0 0.0 0.00 0.00 0.00 87 1020.1
20221003164503 51 101 0.0 0.0 0.00 0.00 0.00 87 1020.1
20221003164003 51 101 0.0 0.0 0.00 0.00 0.00 87 1020.0
20221003163503 51 101 0.0 0.0 0.00 0.00 0.00 87 1020.0
20221003163003 51 101 0.0 0.0 0.00 0.00 0.00 87 1020.1
20221003162506 51 101 0.0 0.0 0.00 0.00 0.00 87 1020.1
20221003162002 51 101 0.0 0.0 0.00 0.00 0.00 87 1020.1
20221003161502 51 101 0.0 0.0 0.00 0.00 0.00 87 1020.1
20221003161001 51 101 0.0 0.0 0.00 0.00 0.00 87 1020.1
20221003160503 51 101 0.0 0.0 0.00 0.00 0.00 87 1020.0
20221003160100 51 101 0.0 0.0 0.00 0.00 0.00 86 1020.1
20221003155559 51 101 0.0 0.0 0.00 0.00 0.00 86 1020.1
20221003155058 51 101 0.0 0.0 0.00 0.00 0.00 86 1020.2
20221003154617 52 101 0.0 0.0 0.00 0.00 0.00 85 1020.3
20221003154058 52 101 0.0 0.0 0.00 0.00 0.00 85 1020.4
20221003153557 52 101 0.0 0.0 0.00 0.00 0.00 85 1020.3
20221003153056 52 101 0.0 0.0 0.00 0.00 0.00 85 1020.3
20221003152556 52 101 0.0 0.0 0.00 0.00 0.00 85 1020.2
20221003152055 52 101 0.0 0.0 0.00 0.00 0.00 85 1020.3
20221003151606 52 101 0.0 0.0 0.00 0.00 0.00 84 1020.3
20221003151058 52 101 0.0 0.0 0.00 0.00 0.00 84 1020.4
20221003150553 53 101 0.0 0.0 0.00 0.00 0.00 84 1020.2
20221003150058 53 101 0.0 0.0 0.00 0.00 0.00 83 1020.3
20221003145552 53 101 0.0 0.0 0.00 0.00 0.00 83 1020.3
20221003145052 53 101 0.0 0.0 0.00 0.00 0.00 83 1020.2
20221003144606 53 101 0.0 0.0 0.00 0.00 0.00 83 1020.3
20221003144050 53 101 0.0 0.0 0.00 0.00 0.00 83 1020.4
20221003143549 53 101 0.0 0.0 0.00 0.00 0.00 83 1020.4
20221003143052 53 101 0.0 0.0 0.00 0.00 0.00 83 1020.4
20221003142548 53 101 0.0 0.0 0.00 0.00 0.00 84 1020.6
20221003142047 53 101 0.0 0.0 0.00 0.00 0.00 84 1020.6
20221003141625 53 101 0.0 0.0 0.00 0.00 0.00 83 1020.6
20221003141046 53 101 0.0 0.0 0.00 0.00 0.00 83 1020.8
20221003140545 53 101 0.0 0.0 0.00 0.00 0.00 83 1020.9
20221003140054 53 101 0.0 0.0 0.00 0.00 0.00 83 1020.9
20221003135547 53 101 0.0 0.0 0.00 0.00 0.00 82 1020.9
20221003135044 53 101 0.0 0.0 0.00 0.00 0.00 82 1021.0
20221003134605 53 101 0.0 0.0 0.00 0.00 0.00 82 1021.1
20221003134043 53 101 0.0 0.0 0.00 0.00 0.00 82 1021.1
20221003133542 53 101 0.0 0.0 0.00 0.00 0.00 82 1021.1
20221003133046 53 101 0.0 0.0 0.00 0.00 0.00 82 1021.1
20221003132543 53 101 0.0 0.0 0.00 0.00 0.00 83 1021.1
20221003132041 53 101 0.0 0.0 0.00 0.00 0.00 82 1021.2
20221003131553 53 101 0.0 0.0 0.00 0.00 0.00 82 1021.2
20221003131044 53 101 0.0 0.0 0.00 0.00 0.00 82 1021.1
20221003130540 53 101 0.0 0.0 0.00 0.00 0.00 82 1021.0
20221003130123 53 101 0.0 0.0 0.00 0.00 0.00 82 1021.1
20221003125544 53 101 0.0 0.0 0.00 0.00 0.00 81 1021.1
20221003125043 54 101 0.0 0.0 0.00 0.00 0.00 81 1021.2
20221003124545 54 101 0.0 0.0 0.00 0.00 0.00 81 1021.3
20221003124040 54 101 0.0 0.0 0.00 0.00 0.00 80 1021.4
20221003123537 54 101 0.0 0.0 0.00 0.00 0.00 80 1021.4
20221003123037 54 101 0.0 0.0 0.00 0.00 0.00 80 1021.4
20221003122537 54 101 0.0 0.0 0.00 0.00 0.00 79 1021.5
20221003122033 55 101 0.0 0.0 0.00 0.00 0.00 79 1021.6
20221003121533 55 101 0.0 0.0 0.00 0.00 0.00 78 1021.6
20221003121038 55 101 0.0 0.0 0.00 0.00 0.00 78 1021.6
20221003120537 55 101 0.0 0.0 0.00 0.00 0.00 77 1021.6
20221003120033 55 101 0.0 0.0 0.00 0.00 0.00 77 1021.6
20221003115533 55 101 0.0 0.0 0.00 0.00 0.00 76 1021.6
20221003115033 56 101 0.0 0.0 0.00 0.00 0.00 76 1021.5
20221003114533 56 101 0.0 0.0 0.00 0.00 0.00 75 1021.5
20221003114034 56 101 0.0 0.0 0.00 0.00 0.00 75 1021.5
20221003113532 56 101 0.0 0.0 0.00 0.00 0.00 75 1021.4
20221003113032 56 101 0.0 0.0 0.00 0.00 0.00 75 1021.4
20221003112532 56 101 0.0 0.0 0.00 0.00 0.00 74 1021.4
20221003112031 56 101 0.0 0.0 0.00 0.00 0.00 74 1021.5
20221003111532 56 101 0.0 0.0 0.00 0.00 0.00 74 1021.4
20221003111034 56 101 0.0 0.0 0.00 0.00 0.00 74 1021.3
20221003110533 56 101 0.0 0.0 0.00 0.00 0.00 74 1021.4
20221003110039 56 101 0.0 0.0 0.00 0.00 0.00 74 1021.5
20221003105531 56 101 0.0 0.0 0.00 0.00 0.00 74 1021.4
20221003105030 56 101 0.0 0.0 0.00 0.00 0.00 74 1021.4
20221003104536 56 101 0.0 0.0 0.00 0.00 0.00 75 1021.4
20221003104033 56 101 0.0 0.0 0.00 0.00 0.00 75 1021.4
20221003103530 56 101 0.0 0.0 0.00 0.00 0.00 75 1021.4
20221003103031 57 101 0.0 0.0 0.00 0.00 0.00 74 1021.3
20221003102530 57 101 0.0 0.0 0.00 0.00 0.00 74 1021.3
20221003102029 57 101 0.0 0.0 0.00 0.00 0.00 74 1021.3
20221003101529 57 101 0.0 2.0 0.00 0.00 0.00 74 1021.1
20221003101032 57 101 0.0 2.0 0.00 0.00 0.00 74 1021.0
20221003100529 57 101 0.0 0.0 0.00 0.00 0.00 74 1020.9
20221003100036 57 101 0.0 0.0 0.00 0.00 0.00 74 1021.0
20221003095527 57 101 0.0 0.0 0.00 0.00 0.00 73 1021.0
20221003095027 57 101 0.0 0.0 0.00 0.00 0.00 73 1021.0
20221003094545 57 101 0.0 0.0 0.00 0.00 0.00 73 1021.0
20221003094029 58 101 0.0 0.0 0.00 0.00 0.00 72 1021.0
20221003093526 58 101 0.0 0.0 0.00 0.00 0.00 72 1021.0
20221003093028 58 101 0.0 0.0 0.00 0.00 0.00 72 1021.0
20221003092527 58 101 0.0 0.0 0.00 0.00 0.00 72 1020.8
20221003092025 58 101 0.0 0.0 0.00 0.00 0.00 72 1020.7
20221003091524 58 101 0.0 0.0 0.00 0.00 0.00 72 1020.6
20221003091025 58 101 0.0 0.0 0.00 0.00 0.00 72 1020.5
20221003090525 58 101 0.0 0.0 0.00 0.00 0.00 72 1020.5
20221003090033 58 101 0.0 0.0 0.00 0.00 0.00 72 1020.6
20221003085525 58 101 0.0 1.0 0.00 0.00 0.00 72 1020.6
20221003085024 58 101 0.0 0.0 0.00 0.00 0.00 72 1020.5
20221003084524 58 101 0.0 0.0 0.00 0.00 0.00 73 1020.3
20221003084028 58 101 0.0 0.0 0.00 0.00 0.00 72 1020.3
20221003083524 58 101 0.0 2.0 0.00 0.00 0.00 72 1020.3
20221003083028 58 101 0.0 2.0 0.00 0.00 0.00 71 1020.3
20221003082524 58 101 0.0 2.0 0.00 0.00 0.00 71 1020.3
20221003082022 0 0.0 0.0 0.00 0.00 0.00 1020.1
20221003081521 0 0.0 0.0 0.00 0.00 0.00 1020.0
20221003081019 0 0.0 0.0 0.00 0.00 0.00 1020.1
20221003080528 0 0.0 0.0 0.00 0.00 0.00 1020.2
20221003080026 0 0.0 0.0 0.00 0.00 0.00 1020.1
20221003075523 0 0.0 0.0 0.00 0.00 0.00 1020.1
20221003075021 0 0.0 0.0 0.00 0.00 0.00 1020.0
20221003074520 0 0.0 0.0 0.00 0.00 0.00 1020.0
20221003074021 0 0.0 0.0 0.00 0.00 0.00 1019.8
20221003073519 0 0.0 0.0 0.00 0.00 0.00 1019.8
20221003073015 0 0.0 0.0 0.00 0.00 0.00 1019.8
20221003072515 0 0.0 0.0 0.00 0.00 0.00 1019.7
20221003072016 0 0.0 0.0 0.00 0.00 0.00 1019.8
20221003071511 0 0.0 0.0 0.00 0.00 0.00 1019.8
20221003071012 0 0.0 0.0 0.00 0.00 0.00 1019.8
20221003070509 0 0.0 0.0 0.00 0.00 0.00 1019.8
20221003070025 0 0.0 0.0 0.00 0.00 0.00 1019.8
20221003065505 0 0.0 0.0 0.00 0.00 0.00 1019.7
20221003065004 0 0.0 0.0 0.00 0.00 0.00 1019.7
20221003064503 0 0.0 0.0 0.00 0.00 0.00 1019.6
20221003064001 0 0.0 0.0 0.00 0.00 0.00 1019.7
20221003063600 0 0.0 0.0 0.00 0.00 0.00 1019.6
20221003063059 0 0.0 0.0 0.00 0.00 0.00 1019.5
20221003062558 0 0.0 0.0 0.00 0.00 0.00 1019.5
20221003062052 0 0.0 0.0 0.00 0.00 0.00 1019.5
20221003061551 0 0.0 0.0 0.00 0.00 0.00 1019.4
20221003061050 0 0.0 0.0 0.00 0.00 0.00 1019.5
20221003060551 64 102 0.0 1.0 0.00 0.00 0.00 57 1019.5
20221003060050 64 102 0.0 1.0 0.00 0.00 0.00 57 1019.5
20221003055549 64 102 0.0 1.0 0.00 0.00 0.00 57 1019.5
20221003055050 64 102 0.0 4.0 0.00 0.00 0.00 57 1019.5
20221003054611 65 102 0.0 7.0 0.00 0.00 0.00 57 1019.5
20221003054059 64 103 0.0 7.0 0.00 0.00 0.00 57 1019.6
20221003053559 65 103 0.0 0.0 0.00 0.00 0.00 56 1019.6
20221003053101 65 103 0.0 1.0 0.00 0.00 0.00 56 1019.7
20221003052602 65 103 0.0 0.0 0.00 0.00 0.00 58 1019.7
20221003052059 65 103 0.0 1.0 0.00 0.00 0.00 58 1019.7
20221003051556 65 103 0.0 3.0 0.00 0.00 0.00 58 1019.7
20221003051056 65 104 0.0 3.0 0.00 0.00 0.00 56 1019.8
20221003050556 65 103 0.0 4.0 0.00 0.00 0.00 56 1019.8
20221003050056 65 103 0.0 7.0 0.00 0.00 0.00 56 1019.7
20221003045556 65 104 0.0 4.0 0.00 0.00 0.00 54 1019.7
20221003045100 66 103 0.0 1.0 0.00 0.00 0.00 54 1019.8
20221003044606 66 103 0.0 1.0 0.00 0.00 0.00 54 1019.9
20221003044058 65 103 0.0 1.0 0.00 0.00 0.00 54 1019.9
20221003043555 65 103 0.0 1.0 0.00 0.00 0.00 54 1019.9
20221003043103 65 103 0.0 10.0 0.00 0.00 0.00 57 1020.0
20221003042556 64 103 1.0 10.0 0.00 0.00 0.00 54 1019.9
20221003042054 65 104 0.0 4.0 0.00 0.00 0.00 53 1019.9
20221003041555 65 105 0.0 8.0 0.00 0.00 0.00 55 1019.9
20221003041055 65 105 0.0 8.0 0.00 0.00 0.00 57 1020.0
20221003040556 65 105 0.0 0.0 0.00 0.00 0.00 55 1020.1
20221003040055 65 105 0.0 7.0 0.00 0.00 0.00 55 1020.0
20221003035555 65 105 0.0 7.0 0.00 0.00 0.00 57 1020.2
20221003035054 65 104 0.0 3.0 0.00 0.00 0.00 59 1020.3
20221003034554 65 104 0.0 8.0 0.00 0.00 0.00 56 1020.4
20221003034054 65 105 0.0 8.0 0.00 0.00 0.00 56 1020.4
20221003033553 65 105 0.0 7.0 0.00 0.00 0.00 57 1020.5
20221003033054 65 105 0.0 7.0 0.00 0.00 0.00 58 1020.5
20221003032554 65 105 0.0 10.0 0.00 0.00 0.00 60 1020.6
20221003032053 65 101 2.0 10.0 0.00 0.00 0.00 57 1020.6
20221003031603 65 103 0.0 10.0 0.00 0.00 0.00 57 1020.7
20221003031052 65 103 0.0 10.0 0.00 0.00 0.00 58 1020.6
20221003030552 66 103 0.0 9.0 0.00 0.00 0.00 54 1020.7
20221003030057 65 103 0.0 9.0 0.00 0.00 0.00 54 1020.8
20221003025552 66 103 0.0 8.0 0.00 0.00 0.00 57 1020.9
20221003025052 66 103 1.0 8.0 0.00 0.00 0.00 53 1020.9
20221003024551 66 103 0.0 0.0 0.00 0.00 0.00 59 1020.9